Location: Albuquerque Trailhead
(34.7934°N, 106.3736°W)
Time: 00:36:38
(UTC+00:00)

Cosmos 2285 Rocket - Pass Details

Date: 20 June 2021
Orbit: 971 x 998 km, 74.0° (Epoch: 01 August)

Event Time Altitude Azimuth Distance (km) Brightness Sun altitude
Rises 03:09:31 0° 203° (SSW) 3,702 6.9 -9.0°
Reaches altitude 10° 03:12:05 10° 205° (SSW) 2,756 6.3 -9.4°
Maximum altitude 03:18:28 69° 288° (WNW) 1,064 4.5 -10.5°
Drops below altitude 10° 03:24:52 10° 12° (NNE) 2,767 6.7 -11.5°
Sets 03:27:27 0° 15° (NNE) 3,717 7.4 -11.9°
